Zurück zum Katalog

KUIPER-00204

AktivKommunikationLEO
NORAD 67145·PAYLOAD·🇺🇸 United States

Gestartet Dec 15, 2025 von Cape Canaveral Space Force Station

Loading…

Nächste Überflüge (nächste 24 Stunden)

TLE

AktuellSource: CelesTrak SupGP

Epoche: Sep 14, 2026, 20:10 UTC

1 67145C 25301N   26257.84069444  .00000620  00000+0  81208-4 0  2572
2 67145  51.9005 289.2165 0000468  70.2735 338.0178 14.79926395    16

Verfolge KUIPER-00204 in Echtzeit mit AllMySat

Download on the App Store